owner,sensor,date,latitude,longitude,vertical_datum,sea_water_temperature,qcFlag 
COMPS,ioos:station:USF.COMPS:EGK:1,2010-02-01T00:00:00Z,27.6010,-82.7510,-1.0,0.72,2 
COMPS,ioos:station:USF.COMPS:EGK:1,2010-02-01T00:06:00Z,27.6010,-82.7510,-1.0,0.09,2 
COMPS,ioos:station:USF.COMPS:EGK:1,2010-02-01T00:42:00Z,27.6010,-82.7510,-1.0,6.0,2 
COMPS,ioos:station:USF.COMPS:EGK:1,2010-02-01T01:00:00Z,27.6010,-82.7510,-1.0,1.24,2 
COMPS,ioos:station:USF.COMPS:EGK:1,2010-02-01T01:06:00Z,27.6010,-82.7510,-1.0,3.28,2 
COMPS,ioos:station:USF.COMPS:EGK:1,2010-02-01T01:12:00Z,27.6010,-82.7510,-1.0,4.16,2 
COMPS,ioos:station:USF.COMPS:EGK:1,2010-02-01T01:18:00Z,27.6010,-82.7510,-1.0,3.62,2 
COMPS,ioos:station:USF.COMPS:EGK:1,2010-02-01T01:24:00Z,27.6010,-82.7510,-1.0,3.19,2 
COMPS,ioos:station:USF.COMPS:EGK:1,2010-02-01T01:30:00Z,27.6010,-82.7510,-1.0,3.83,2 
COMPS,ioos:station:USF.COMPS:EGK:1,2010-02-01T01:36:00Z,27.6010,-82.7510,-1.0,3.34,2 
COMPS,ioos:station:USF.COMPS:EGK:1,2010-02-01T01:42:00Z,27.6010,-82.7510,-1.0,3.84,2 
COMPS,ioos:station:USF.COMPS:EGK:1,2010-02-01T01:54:00Z,27.6010,-82.7510,-1.0,0.57,2 
COMPS,ioos:station:USF.COMPS:EGK:1,2010-02-01T02:00:00Z,27.6010,-82.7510,-1.0,4.18,2 
COMPS,ioos:station:USF.COMPS:EGK:1,2010-02-01T02:06:00Z,27.6010,-82.7510,-1.0,3.16,2 
COMPS,ioos:station:USF.COMPS:EGK:1,2010-02-01T02:12:00Z,27.6010,-82.7510,-1.0,0.25,2 
COMPS,ioos:station:USF.COMPS:EGK:1,2010-02-01T02:18:00Z,27.6010,-82.7510,-1.0,1.47,2 
COMPS,ioos:station:USF.COMPS:EGK:1,2010-02-01T02:24:00Z,27.6010,-82.7510,-1.0,1.66,2 
COMPS,ioos:station:USF.COMPS:EGK:1,2010-02-01T02:30:00Z,27.6010,-82.7510,-1.0,2.57,2 
COMPS,ioos:station:USF.COMPS:EGK:1,2010-02-01T02:48:00Z,27.6010,-82.7510,-1.0,2.66,2 
COMPS,ioos:station:USF.COMPS:EGK:1,2010-02-01T02:54:00Z,27.6010,-82.7510,-1.0,3.5,2 
COMPS,ioos:station:USF.COMPS:EGK:1,2010-02-01T03:00:00Z,27.6010,-82.7510,-1.0,3.36,2 
COMPS,ioos:station:USF.COMPS:EGK:1,2010-02-01T03:06:00Z,27.6010,-82.7510,-1.0,3.1,2 
COMPS,ioos:station:USF.COMPS:EGK:1,2010-02-01T03:12:00Z,27.6010,-82.7510,-1.0,2.74,2 
COMPS,ioos:station:USF.COMPS:EGK:1,2010-02-01T03:24:00Z,27.6010,-82.7510,-1.0,2.11,2 
COMPS,ioos:station:USF.COMPS:EGK:1,2010-02-01T03:30:00Z,27.6010,-82.7510,-1.0,2.91,2 
COMPS,ioos:station:USF.COMPS:EGK:1,2010-02-01T03:36:00Z,27.6010,-82.7510,-1.0,2.16,2 
COMPS,ioos:station:USF.COMPS:EGK:1,2010-02-01T03:42:00Z,27.6010,-82.7510,-1.0,1.95,2 
COMPS,ioos:station:USF.COMPS:EGK:1,2010-02-01T03:48:00Z,27.6010,-82.7510,-1.0,0.6,2 
COMPS,ioos:station:USF.COMPS:EGK:1,2010-02-01T03:54:00Z,27.6010,-82.7510,-1.0,2.18,2 
COMPS,ioos:station:USF.COMPS:EGK:1,2010-02-01T04:00:00Z,27.6010,-82.7510,-1.0,2.95,2 
COMPS,ioos:station:USF.COMPS:EGK:1,2010-02-01T04:06:00Z,27.6010,-82.7510,-1.0,2.63,2 
COMPS,ioos:station:USF.COMPS:EGK:1,2010-02-01T04:12:00Z,27.6010,-82.7510,-1.0,0.36,2 
COMPS,ioos:station:USF.COMPS:EGK:1,2010-02-01T04:24:00Z,27.6010,-82.7510,-1.0,1.08,2 
COMPS,ioos:station:USF.COMPS:EGK:1,2010-02-01T04:30:00Z,27.6010,-82.7510,-1.0,2.65,2 
COMPS,ioos:station:USF.COMPS:EGK:1,2010-02-01T04:54:00Z,27.6010,-82.7510,-1.0,2.18,2 
COMPS,ioos:station:USF.COMPS:EGK:1,2010-02-01T05:06:00Z,27.6010,-82.7510,-1.0,0.09,2 
COMPS,ioos:station:USF.COMPS:EGK:1,2010-02-01T05:18:00Z,27.6010,-82.7510,-1.0,0.33,2 
COMPS,ioos:station:USF.COMPS:EGK:1,2010-02-01T05:30:00Z,27.6010,-82.7510,-1.0,3.68,2 
COMPS,ioos:station:USF.COMPS:EGK:1,2010-02-01T05:36:00Z,27.6010,-82.7510,-1.0,6.81,2 
COMPS,ioos:station:USF.COMPS:EGK:1,2010-02-01T05:42:00Z,27.6010,-82.7510,-1.0,6.41,2 
COMPS,ioos:station:USF.COMPS:EGK:1,2010-02-01T05:48:00Z,27.6010,-82.7510,-1.0,3.31,2 
COMPS,ioos:station:USF.COMPS:EGK:1,2010-02-01T05:54:00Z,27.6010,-82.7510,-1.0,2.9,2 
COMPS,ioos:station:USF.COMPS:EGK:1,2010-02-01T06:00:00Z,27.6010,-82.7510,-1.0,2.67,2 
COMPS,ioos:station:USF.COMPS:EGK:1,2010-02-01T06:06:00Z,27.6010,-82.7510,-1.0,2.81,2 
COMPS,ioos:station:USF.COMPS:EGK:1,2010-02-01T06:12:00Z,27.6010,-82.7510,-1.0,2.84,2 
COMPS,ioos:station:USF.COMPS:EGK:1,2010-02-01T06:18:00Z,27.6010,-82.7510,-1.0,3.1,2 
COMPS,ioos:station:USF.COMPS:EGK:1,2010-02-01T06:24:00Z,27.6010,-82.7510,-1.0,2.19,2 
COMPS,ioos:station:USF.COMPS:EGK:1,2010-02-01T06:36:00Z,27.6010,-82.7510,-1.0,2.74,2 
COMPS,ioos:station:USF.COMPS:EGK:1,2010-02-01T06:42:00Z,27.6010,-82.7510,-1.0,2.74,2 
COMPS,ioos:station:USF.COMPS:EGK:1,2010-02-01T06:48:00Z,27.6010,-82.7510,-1.0,2.45,2 
COMPS,ioos:station:USF.COMPS:EGK:1,2010-02-01T06:54:00Z,27.6010,-82.7510,-1.0,1.79,2 
COMPS,ioos:station:USF.COMPS:EGK:1,2010-02-01T07:00:00Z,27.6010,-82.7510,-1.0,2.37,2 
COMPS,ioos:station:USF.COMPS:EGK:1,2010-02-01T07:06:00Z,27.6010,-82.7510,-1.0,1.86,2 
COMPS,ioos:station:USF.COMPS:EGK:1,2010-02-01T07:12:00Z,27.6010,-82.7510,-1.0,1.67,2 
COMPS,ioos:station:USF.COMPS:EGK:1,2010-02-01T07:18:00Z,27.6010,-82.7510,-1.0,2.74,2 
COMPS,ioos:station:USF.COMPS:EGK:1,2010-02-01T07:24:00Z,27.6010,-82.7510,-1.0,2.69,2 
COMPS,ioos:station:USF.COMPS:EGK:1,2010-02-01T07:30:00Z,27.6010,-82.7510,-1.0,2.44,2 
COMPS,ioos:station:USF.COMPS:EGK:1,2010-02-01T07:36:00Z,27.6010,-82.7510,-1.0,2.48,2 
COMPS,ioos:station:USF.COMPS:EGK:1,2010-02-01T07:42:00Z,27.6010,-82.7510,-1.0,2.26,2 
COMPS,ioos:station:USF.COMPS:EGK:1,2010-02-01T07:48:00Z,27.6010,-82.7510,-1.0,2.91,2 
COMPS,ioos:station:USF.COMPS:EGK:1,2010-02-01T07:54:00Z,27.6010,-82.7510,-1.0,2.78,2 
COMPS,ioos:station:USF.COMPS:EGK:1,2010-02-01T08:00:00Z,27.6010,-82.7510,-1.0,3.12,2 
COMPS,ioos:station:USF.COMPS:EGK:1,2010-02-01T08:06:00Z,27.6010,-82.7510,-1.0,2.04,2 
COMPS,ioos:station:USF.COMPS:EGK:1,2010-02-01T08:12:00Z,27.6010,-82.7510,-1.0,1.08,2 
COMPS,ioos:station:USF.COMPS:EGK:1,2010-02-01T08:24:00Z,27.6010,-82.7510,-1.0,0.89,2 
COMPS,ioos:station:USF.COMPS:EGK:1,2010-02-01T08:42:00Z,27.6010,-82.7510,-1.0,3.56,2 
COMPS,ioos:station:USF.COMPS:EGK:1,2010-02-01T08:48:00Z,27.6010,-82.7510,-1.0,1.63,2 
COMPS,ioos:station:USF.COMPS:EGK:1,2010-02-01T08:54:00Z,27.6010,-82.7510,-1.0,1.83,2 
COMPS,ioos:station:USF.COMPS:EGK:1,2010-02-01T09:00:00Z,27.6010,-82.7510,-1.0,2.41,2 
COMPS,ioos:station:USF.COMPS:EGK:1,2010-02-01T09:06:00Z,27.6010,-82.7510,-1.0,2.8,2 
COMPS,ioos:station:USF.COMPS:EGK:1,2010-02-01T09:12:00Z,27.6010,-82.7510,-1.0,2.0,2 
COMPS,ioos:station:USF.COMPS:EGK:1,2010-02-01T09:18:00Z,27.6010,-82.7510,-1.0,2.45,2 
COMPS,ioos:station:USF.COMPS:EGK:1,2010-02-01T09:24:00Z,27.6010,-82.7510,-1.0,2.17,2 
COMPS,ioos:station:USF.COMPS:EGK:1,2010-02-01T09:30:00Z,27.6010,-82.7510,-1.0,2.39,2 
COMPS,ioos:station:USF.COMPS:EGK:1,2010-02-01T09:36:00Z,27.6010,-82.7510,-1.0,2.69,2 
COMPS,ioos:station:USF.COMPS:EGK:1,2010-02-01T09:42:00Z,27.6010,-82.7510,-1.0,2.43,2 
COMPS,ioos:station:USF.COMPS:EGK:1,2010-02-01T09:48:00Z,27.6010,-82.7510,-1.0,3.34,2 
COMPS,ioos:station:USF.COMPS:EGK:1,2010-02-01T09:54:00Z,27.6010,-82.7510,-1.0,2.55,2 
COMPS,ioos:station:USF.COMPS:EGK:1,2010-02-01T10:00:00Z,27.6010,-82.7510,-1.0,3.19,2 
COMPS,ioos:station:USF.COMPS:EGK:1,2010-02-01T10:06:00Z,27.6010,-82.7510,-1.0,2.4,2 
COMPS,ioos:station:USF.COMPS:EGK:1,2010-02-01T10:12:00Z,27.6010,-82.7510,-1.0,0.39,2 
COMPS,ioos:station:USF.COMPS:EGK:1,2010-02-01T10:18:00Z,27.6010,-82.7510,-1.0,2.17,2 
COMPS,ioos:station:USF.COMPS:EGK:1,2010-02-01T10:30:00Z,27.6010,-82.7510,-1.0,1.59,2 
COMPS,ioos:station:USF.COMPS:EGK:1,2010-02-01T10:36:00Z,27.6010,-82.7510,-1.0,2.44,2 
COMPS,ioos:station:USF.COMPS:EGK:1,2010-02-01T10:42:00Z,27.6010,-82.7510,-1.0,1.67,2 
COMPS,ioos:station:USF.COMPS:EGK:1,2010-02-01T11:00:00Z,27.6010,-82.7510,-1.0,2.27,2 
COMPS,ioos:station:USF.COMPS:EGK:1,2010-02-01T11:06:00Z,27.6010,-82.7510,-1.0,2.28,2 
COMPS,ioos:station:USF.COMPS:EGK:1,2010-02-01T11:12:00Z,27.6010,-82.7510,-1.0,2.35,2 
COMPS,ioos:station:USF.COMPS:EGK:1,2010-02-01T11:18:00Z,27.6010,-82.7510,-1.0,1.82,2 
COMPS,ioos:station:USF.COMPS:EGK:1,2010-02-01T11:24:00Z,27.6010,-82.7510,-1.0,2.3,2 
COMPS,ioos:station:USF.COMPS:EGK:1,2010-02-01T11:30:00Z,27.6010,-82.7510,-1.0,2.47,2 
COMPS,ioos:station:USF.COMPS:EGK:1,2010-02-01T11:36:00Z,27.6010,-82.7510,-1.0,2.57,2 
COMPS,ioos:station:USF.COMPS:EGK:1,2010-02-01T11:42:00Z,27.6010,-82.7510,-1.0,2.42,2 
COMPS,ioos:station:USF.COMPS:EGK:1,2010-02-01T11:48:00Z,27.6010,-82.7510,-1.0,2.26,2 
COMPS,ioos:station:USF.COMPS:EGK:1,2010-02-01T11:54:00Z,27.6010,-82.7510,-1.0,2.2,2 
COMPS,ioos:station:USF.COMPS:EGK:1,2010-02-01T12:00:00Z,27.6010,-82.7510,-1.0,1.32,2 
COMPS,ioos:station:USF.COMPS:EGK:1,2010-02-01T12:06:00Z,27.6010,-82.7510,-1.0,1.81,2 
COMPS,ioos:station:USF.COMPS:EGK:1,2010-02-01T12:12:00Z,27.6010,-82.7510,-1.0,1.08,2 
COMPS,ioos:station:USF.COMPS:EGK:1,2010-02-01T12:24:00Z,27.6010,-82.7510,-1.0,1.65,2 
COMPS,ioos:station:USF.COMPS:EGK:1,2010-02-01T12:30:00Z,27.6010,-82.7510,-1.0,1.9,2 
COMPS,ioos:station:USF.COMPS:EGK:1,2010-02-01T12:36:00Z,27.6010,-82.7510,-1.0,0.99,2 
COMPS,ioos:station:USF.COMPS:EGK:1,2010-02-01T12:42:00Z,27.6010,-82.7510,-1.0,1.18,2 
COMPS,ioos:station:USF.COMPS:EGK:1,2010-02-01T12:48:00Z,27.6010,-82.7510,-1.0,0.72,2 
COMPS,ioos:station:USF.COMPS:EGK:1,2010-02-01T12:54:00Z,27.6010,-82.7510,-1.0,0.57,2 
COMPS,ioos:station:USF.COMPS:EGK:1,2010-02-01T13:00:00Z,27.6010,-82.7510,-1.0,2.6,2 
COMPS,ioos:station:USF.COMPS:EGK:1,2010-02-01T13:06:00Z,27.6010,-82.7510,-1.0,4.52,2 
COMPS,ioos:station:USF.COMPS:EGK:1,2010-02-01T13:12:00Z,27.6010,-82.7510,-1.0,4.26,2 
COMPS,ioos:station:USF.COMPS:EGK:1,2010-02-01T13:18:00Z,27.6010,-82.7510,-1.0,2.89,2 
COMPS,ioos:station:USF.COMPS:EGK:1,2010-02-01T13:24:00Z,27.6010,-82.7510,-1.0,2.73,2 
COMPS,ioos:station:USF.COMPS:EGK:1,2010-02-01T13:30:00Z,27.6010,-82.7510,-1.0,2.65,2 
COMPS,ioos:station:USF.COMPS:EGK:1,2010-02-01T13:36:00Z,27.6010,-82.7510,-1.0,2.47,2 
COMPS,ioos:station:USF.COMPS:EGK:1,2010-02-01T13:42:00Z,27.6010,-82.7510,-1.0,2.01,2 
COMPS,ioos:station:USF.COMPS:EGK:1,2010-02-01T13:48:00Z,27.6010,-82.7510,-1.0,0.05,2 
COMPS,ioos:station:USF.COMPS:EGK:1,2010-02-01T14:00:00Z,27.6010,-82.7510,-1.0,0.93,2 
COMPS,ioos:station:USF.COMPS:EGK:1,2010-02-01T14:18:00Z,27.6010,-82.7510,-1.0,1.91,2 
COMPS,ioos:station:USF.COMPS:EGK:1,2010-02-01T14:24:00Z,27.6010,-82.7510,-1.0,2.07,2 
COMPS,ioos:station:USF.COMPS:EGK:1,2010-02-01T14:30:00Z,27.6010,-82.7510,-1.0,1.98,2 
COMPS,ioos:station:USF.COMPS:EGK:1,2010-02-01T14:36:00Z,27.6010,-82.7510,-1.0,0.7,2 
COMPS,ioos:station:USF.COMPS:EGK:1,2010-02-01T14:42:00Z,27.6010,-82.7510,-1.0,2.73,2 
COMPS,ioos:station:USF.COMPS:EGK:1,2010-02-01T14:48:00Z,27.6010,-82.7510,-1.0,2.34,2 
COMPS,ioos:station:USF.COMPS:EGK:1,2010-02-01T14:54:00Z,27.6010,-82.7510,-1.0,2.11,2 
COMPS,ioos:station:USF.COMPS:EGK:1,2010-02-01T15:06:00Z,27.6010,-82.7510,-1.0,2.3,2 
COMPS,ioos:station:USF.COMPS:EGK:1,2010-02-01T15:12:00Z,27.6010,-82.7510,-1.0,1.8,2 
COMPS,ioos:station:USF.COMPS:EGK:1,2010-02-01T15:18:00Z,27.6010,-82.7510,-1.0,2.38,2 
COMPS,ioos:station:USF.COMPS:EGK:1,2010-02-01T15:24:00Z,27.6010,-82.7510,-1.0,1.17,2 
COMPS,ioos:station:USF.COMPS:EGK:1,2010-02-01T15:30:00Z,27.6010,-82.7510,-1.0,2.35,2 
COMPS,ioos:station:USF.COMPS:EGK:1,2010-02-01T15:36:00Z,27.6010,-82.7510,-1.0,2.56,2 
COMPS,ioos:station:USF.COMPS:EGK:1,2010-02-01T15:42:00Z,27.6010,-82.7510,-1.0,0.25,2 
COMPS,ioos:station:USF.COMPS:EGK:1,2010-02-01T16:12:00Z,27.6010,-82.7510,-1.0,0.96,2 
COMPS,ioos:station:USF.COMPS:EGK:1,2010-02-01T16:18:00Z,27.6010,-82.7510,-1.0,0.73,2 
COMPS,ioos:station:USF.COMPS:EGK:1,2010-02-01T16:30:00Z,27.6010,-82.7510,-1.0,2.67,2 
COMPS,ioos:station:USF.COMPS:EGK:1,2010-02-01T16:36:00Z,27.6010,-82.7510,-1.0,2.65,2 
COMPS,ioos:station:USF.COMPS:EGK:1,2010-02-01T16:48:00Z,27.6010,-82.7510,-1.0,0.32,2 
COMPS,ioos:station:USF.COMPS:EGK:1,2010-02-01T16:54:00Z,27.6010,-82.7510,-1.0,0.82,2 
COMPS,ioos:station:USF.COMPS:EGK:1,2010-02-01T17:00:00Z,27.6010,-82.7510,-1.0,1.88,2 
COMPS,ioos:station:USF.COMPS:EGK:1,2010-02-01T17:18:00Z,27.6010,-82.7510,-1.0,2.23,2 
COMPS,ioos:station:USF.COMPS:EGK:1,2010-02-01T17:24:00Z,27.6010,-82.7510,-1.0,4.53,2 
COMPS,ioos:station:USF.COMPS:EGK:1,2010-02-01T17:30:00Z,27.6010,-82.7510,-1.0,1.12,2 
COMPS,ioos:station:USF.COMPS:EGK:1,2010-02-01T17:42:00Z,27.6010,-82.7510,-1.0,0.0,2 
COMPS,ioos:station:USF.COMPS:EGK:1,2010-02-01T17:48:00Z,27.6010,-82.7510,-1.0,0.82,2 
COMPS,ioos:station:USF.COMPS:EGK:1,2010-02-01T17:54:00Z,27.6010,-82.7510,-1.0,1.81,2 
COMPS,ioos:station:USF.COMPS:EGK:1,2010-02-01T18:00:00Z,27.6010,-82.7510,-1.0,2.66,2 
COMPS,ioos:station:USF.COMPS:EGK:1,2010-02-01T18:06:00Z,27.6010,-82.7510,-1.0,2.63,2 
COMPS,ioos:station:USF.COMPS:EGK:1,2010-02-01T18:12:00Z,27.6010,-82.7510,-1.0,2.29,2 
COMPS,ioos:station:USF.COMPS:EGK:1,2010-02-01T18:18:00Z,27.6010,-82.7510,-1.0,2.2,2 
COMPS,ioos:station:USF.COMPS:EGK:1,2010-02-01T18:24:00Z,27.6010,-82.7510,-1.0,2.53,2 
COMPS,ioos:station:USF.COMPS:EGK:1,2010-02-01T18:30:00Z,27.6010,-82.7510,-1.0,2.54,2 
COMPS,ioos:station:USF.COMPS:EGK:1,2010-02-01T18:36:00Z,27.6010,-82.7510,-1.0,3.13,2 
COMPS,ioos:station:USF.COMPS:EGK:1,2010-02-01T18:42:00Z,27.6010,-82.7510,-1.0,2.93,2 
COMPS,ioos:station:USF.COMPS:EGK:1,2010-02-01T18:48:00Z,27.6010,-82.7510,-1.0,1.98,2 
COMPS,ioos:station:USF.COMPS:EGK:1,2010-02-01T18:54:00Z,27.6010,-82.7510,-1.0,2.67,2 
COMPS,ioos:station:USF.COMPS:EGK:1,2010-02-01T19:00:00Z,27.6010,-82.7510,-1.0,0.76,2 
COMPS,ioos:station:USF.COMPS:EGK:1,2010-02-01T19:12:00Z,27.6010,-82.7510,-1.0,1.45,2 
COMPS,ioos:station:USF.COMPS:EGK:1,2010-02-01T19:24:00Z,27.6010,-82.7510,-1.0,0.69,2 
COMPS,ioos:station:USF.COMPS:EGK:1,2010-02-01T19:42:00Z,27.6010,-82.7510,-1.0,1.12,2 
COMPS,ioos:station:USF.COMPS:EGK:1,2010-02-01T19:48:00Z,27.6010,-82.7510,-1.0,1.67,2 
COMPS,ioos:station:USF.COMPS:EGK:1,2010-02-01T19:54:00Z,27.6010,-82.7510,-1.0,0.19,2 
COMPS,ioos:station:USF.COMPS:EGK:1,2010-02-01T20:00:00Z,27.6010,-82.7510,-1.0,2.54,2 
COMPS,ioos:station:USF.COMPS:EGK:1,2010-02-01T20:12:00Z,27.6010,-82.7510,-1.0,1.88,2 
COMPS,ioos:station:USF.COMPS:EGK:1,2010-02-01T20:18:00Z,27.6010,-82.7510,-1.0,0.65,2 
COMPS,ioos:station:USF.COMPS:EGK:1,2010-02-01T20:54:00Z,27.6010,-82.7510,-1.0,2.8,2 
COMPS,ioos:station:USF.COMPS:EGK:1,2010-02-01T21:00:00Z,27.6010,-82.7510,-1.0,1.45,2 
COMPS,ioos:station:USF.COMPS:EGK:1,2010-02-01T21:12:00Z,27.6010,-82.7510,-1.0,5.02,2 
COMPS,ioos:station:USF.COMPS:EGK:1,2010-02-01T21:48:00Z,27.6010,-82.7510,-1.0,6.53,2 
COMPS,ioos:station:USF.COMPS:EGK:1,2010-02-01T21:54:00Z,27.6010,-82.7510,-1.0,3.26,2 
COMPS,ioos:station:USF.COMPS:EGK:1,2010-02-01T22:00:00Z,27.6010,-82.7510,-1.0,1.17,2 
COMPS,ioos:station:USF.COMPS:EGK:1,2010-02-01T22:12:00Z,27.6010,-82.7510,-1.0,2.7,2 
COMPS,ioos:station:USF.COMPS:EGK:1,2010-02-01T22:24:00Z,27.6010,-82.7510,-1.0,0.03,2 
COMPS,ioos:station:USF.COMPS:EGK:1,2010-02-01T22:30:00Z,27.6010,-82.7510,-1.0,1.8,2 
COMPS,ioos:station:USF.COMPS:EGK:1,2010-02-01T22:36:00Z,27.6010,-82.7510,-1.0,0.98,2 
COMPS,ioos:station:USF.COMPS:EGK:1,2010-02-01T22:48:00Z,27.6010,-82.7510,-1.0,2.89,2 
COMPS,ioos:station:USF.COMPS:EGK:1,2010-02-01T22:54:00Z,27.6010,-82.7510,-1.0,2.72,2 
COMPS,ioos:station:USF.COMPS:EGK:1,2010-02-01T23:00:00Z,27.6010,-82.7510,-1.0,0.7,2 
COMPS,ioos:station:USF.COMPS:EGK:1,2010-02-01T23:06:00Z,27.6010,-82.7510,-1.0,2.17,2 
COMPS,ioos:station:USF.COMPS:EGK:1,2010-02-01T23:12:00Z,27.6010,-82.7510,-1.0,2.44,2 
COMPS,ioos:station:USF.COMPS:EGK:1,2010-02-01T23:18:00Z,27.6010,-82.7510,-1.0,2.61,2 
COMPS,ioos:station:USF.COMPS:EGK:1,2010-02-01T23:30:00Z,27.6010,-82.7510,-1.0,1.61,2 
COMPS,ioos:station:USF.COMPS:EGK:1,2010-02-01T23:36:00Z,27.6010,-82.7510,-1.0,2.56,2 
COMPS,ioos:station:USF.COMPS:EGK:1,2010-02-01T23:42:00Z,27.6010,-82.7510,-1.0,1.64,2 
COMPS,ioos:station:USF.COMPS:EGK:1,2010-02-01T23:48:00Z,27.6010,-82.7510,-1.0,3.01,2 
COMPS,ioos:station:USF.COMPS:EGK:1,2010-02-01T23:54:00Z,27.6010,-82.7510,-1.0,3.08,2 
COMPS,ioos:station:USF.COMPS:EGK:1,2010-02-02T00:00:00Z,27.6010,-82.7510,-1.0,2.64,2 
COMPS,ioos:station:USF.COMPS:EGK:1,2010-02-02T00:06:00Z,27.6010,-82.7510,-1.0,2.47,2 
COMPS,ioos:station:USF.COMPS:EGK:1,2010-02-02T00:12:00Z,27.6010,-82.7510,-1.0,1.35,2 
COMPS,ioos:station:USF.COMPS:EGK:1,2010-02-02T00:18:00Z,27.6010,-82.7510,-1.0,3.06,2 
COMPS,ioos:station:USF.COMPS:EGK:1,2010-02-02T00:42:00Z,27.6010,-82.7510,-1.0,1.31,2 
COMPS,ioos:station:USF.COMPS:EGK:1,2010-02-02T00:48:00Z,27.6010,-82.7510,-1.0,2.2,2 
COMPS,ioos:station:USF.COMPS:EGK:1,2010-02-02T00:54:00Z,27.6010,-82.7510,-1.0,1.33,2 
COMPS,ioos:station:USF.COMPS:EGK:1,2010-02-02T01:00:00Z,27.6010,-82.7510,-1.0,2.55,2 
COMPS,ioos:station:USF.COMPS:EGK:1,2010-02-02T01:06:00Z,27.6010,-82.7510,-1.0,1.84,2 
COMPS,ioos:station:USF.COMPS:EGK:1,2010-02-02T01:12:00Z,27.6010,-82.7510,-1.0,0.34,2 
COMPS,ioos:station:USF.COMPS:EGK:1,2010-02-02T01:30:00Z,27.6010,-82.7510,-1.0,1.73,2 
COMPS,ioos:station:USF.COMPS:EGK:1,2010-02-02T01:36:00Z,27.6010,-82.7510,-1.0,2.15,2 
COMPS,ioos:station:USF.COMPS:EGK:1,2010-02-02T01:42:00Z,27.6010,-82.7510,-1.0,2.91,2 
COMPS,ioos:station:USF.COMPS:EGK:1,2010-02-02T01:48:00Z,27.6010,-82.7510,-1.0,2.55,2 
COMPS,ioos:station:USF.COMPS:EGK:1,2010-02-02T01:54:00Z,27.6010,-82.7510,-1.0,2.65,2 
COMPS,ioos:station:USF.COMPS:EGK:1,2010-02-02T02:00:00Z,27.6010,-82.7510,-1.0,2.81,2 
COMPS,ioos:station:USF.COMPS:EGK:1,2010-02-02T02:06:00Z,27.6010,-82.7510,-1.0,2.6,2 
COMPS,ioos:station:USF.COMPS:EGK:1,2010-02-02T02:12:00Z,27.6010,-82.7510,-1.0,1.39,2 
COMPS,ioos:station:USF.COMPS:EGK:1,2010-02-02T02:18:00Z,27.6010,-82.7510,-1.0,0.51,2 
COMPS,ioos:station:USF.COMPS:EGK:1,2010-02-02T02:30:00Z,27.6010,-82.7510,-1.0,2.0,2 
COMPS,ioos:station:USF.COMPS:EGK:1,2010-02-02T02:36:00Z,27.6010,-82.7510,-1.0,1.83,2 
COMPS,ioos:station:USF.COMPS:EGK:1,2010-02-02T02:42:00Z,27.6010,-82.7510,-1.0,1.44,2 
COMPS,ioos:station:USF.COMPS:EGK:1,2010-02-02T02:48:00Z,27.6010,-82.7510,-1.0,2.81,2 
COMPS,ioos:station:USF.COMPS:EGK:1,2010-02-02T02:54:00Z,27.6010,-82.7510,-1.0,2.8,2 
COMPS,ioos:station:USF.COMPS:EGK:1,2010-02-02T03:00:00Z,27.6010,-82.7510,-1.0,2.0,2 
COMPS,ioos:station:USF.COMPS:EGK:1,2010-02-02T03:06:00Z,27.6010,-82.7510,-1.0,2.65,2 
COMPS,ioos:station:USF.COMPS:EGK:1,2010-02-02T03:12:00Z,27.6010,-82.7510,-1.0,2.27,2 
COMPS,ioos:station:USF.COMPS:EGK:1,2010-02-02T03:24:00Z,27.6010,-82.7510,-1.0,2.27,2 
COMPS,ioos:station:USF.COMPS:EGK:1,2010-02-02T03:36:00Z,27.6010,-82.7510,-1.0,1.81,2 
COMPS,ioos:station:USF.COMPS:EGK:1,2010-02-02T03:54:00Z,27.6010,-82.7510,-1.0,2.11,2 
COMPS,ioos:station:USF.COMPS:EGK:1,2010-02-02T04:06:00Z,27.6010,-82.7510,-1.0,0.32,2 
COMPS,ioos:station:USF.COMPS:EGK:1,2010-02-02T04:12:00Z,27.6010,-82.7510,-1.0,1.61,2 
COMPS,ioos:station:USF.COMPS:EGK:1,2010-02-02T04:30:00Z,27.6010,-82.7510,-1.0,0.35,2 
COMPS,ioos:station:USF.COMPS:EGK:1,2010-02-02T05:18:00Z,27.6010,-82.7510,-1.0,2.84,2 
COMPS,ioos:station:USF.COMPS:EGK:1,2010-02-02T05:24:00Z,27.6010,-82.7510,-1.0,0.45,2 
COMPS,ioos:station:USF.COMPS:EGK:1,2010-02-02T05:42:00Z,27.6010,-82.7510,-1.0,0.67,2 
COMPS,ioos:station:USF.COMPS:EGK:1,2010-02-02T05:48:00Z,27.6010,-82.7510,-1.0,1.19,2 
COMPS,ioos:station:USF.COMPS:EGK:1,2010-02-02T06:18:00Z,27.6010,-82.7510,-1.0,2.64,2 
COMPS,ioos:station:USF.COMPS:EGK:1,2010-02-02T06:24:00Z,27.6010,-82.7510,-1.0,3.35,2 
COMPS,ioos:station:USF.COMPS:EGK:1,2010-02-02T06:30:00Z,27.6010,-82.7510,-1.0,2.33,2 
COMPS,ioos:station:USF.COMPS:EGK:1,2010-02-02T06:36:00Z,27.6010,-82.7510,-1.0,2.25,2 
COMPS,ioos:station:USF.COMPS:EGK:1,2010-02-02T06:42:00Z,27.6010,-82.7510,-1.0,2.47,2 
COMPS,ioos:station:USF.COMPS:EGK:1,2010-02-02T06:48:00Z,27.6010,-82.7510,-1.0,0.36,2 
COMPS,ioos:station:USF.COMPS:EGK:1,2010-02-02T07:18:00Z,27.6010,-82.7510,-1.0,3.46,2 
COMPS,ioos:station:USF.COMPS:EGK:1,2010-02-02T07:24:00Z,27.6010,-82.7510,-1.0,1.38,2 
COMPS,ioos:station:USF.COMPS:EGK:1,2010-02-02T07:42:00Z,27.6010,-82.7510,-1.0,3.23,2 
COMPS,ioos:station:USF.COMPS:EGK:1,2010-02-02T07:48:00Z,27.6010,-82.7510,-1.0,0.62,2 
COMPS,ioos:station:USF.COMPS:EGK:1,2010-02-02T08:06:00Z,27.6010,-82.7510,-1.0,8.76,2 
COMPS,ioos:station:USF.COMPS:EGK:1,2010-02-02T08:12:00Z,27.6010,-82.7510,-1.0,8.79,2 
COMPS,ioos:station:USF.COMPS:EGK:1,2010-02-02T08:18:00Z,27.6010,-82.7510,-1.0,8.55,2 
COMPS,ioos:station:USF.COMPS:EGK:1,2010-02-02T08:24:00Z,27.6010,-82.7510,-1.0,8.54,2 
COMPS,ioos:station:USF.COMPS:EGK:1,2010-02-02T08:30:00Z,27.6010,-82.7510,-1.0,8.7,2 
COMPS,ioos:station:USF.COMPS:EGK:1,2010-02-02T08:36:00Z,27.6010,-82.7510,-1.0,8.72,2 
COMPS,ioos:station:USF.COMPS:EGK:1,2010-02-02T08:42:00Z,27.6010,-82.7510,-1.0,8.55,2 
COMPS,ioos:station:USF.COMPS:EGK:1,2010-02-02T08:48:00Z,27.6010,-82.7510,-1.0,8.49,2 
COMPS,ioos:station:USF.COMPS:EGK:1,2010-02-02T08:54:00Z,27.6010,-82.7510,-1.0,8.66,2 
COMPS,ioos:station:USF.COMPS:EGK:1,2010-02-02T09:00:00Z,27.6010,-82.7510,-1.0,8.78,2 
COMPS,ioos:station:USF.COMPS:EGK:1,2010-02-02T09:06:00Z,27.6010,-82.7510,-1.0,8.72,2 
COMPS,ioos:station:USF.COMPS:EGK:1,2010-02-02T09:12:00Z,27.6010,-82.7510,-1.0,8.53,2 
COMPS,ioos:station:USF.COMPS:EGK:1,2010-02-02T09:18:00Z,27.6010,-82.7510,-1.0,8.7,2 
COMPS,ioos:station:USF.COMPS:EGK:1,2010-02-03T00:06:00Z,27.6010,-82.7510,-1.0,0.53,2 
COMPS,ioos:station:USF.COMPS:EGK:1,2010-02-03T00:12:00Z,27.6010,-82.7510,-1.0,2.26,2 
COMPS,ioos:station:USF.COMPS:EGK:1,2010-02-03T00:18:00Z,27.6010,-82.7510,-1.0,2.29,2 
COMPS,ioos:station:USF.COMPS:EGK:1,2010-02-03T00:24:00Z,27.6010,-82.7510,-1.0,2.4,2 
COMPS,ioos:station:USF.COMPS:EGK:1,2010-02-03T00:30:00Z,27.6010,-82.7510,-1.0,2.48,2 
COMPS,ioos:station:USF.COMPS:EGK:1,2010-02-03T00:36:00Z,27.6010,-82.7510,-1.0,2.72,2 
COMPS,ioos:station:USF.COMPS:EGK:1,2010-02-03T00:42:00Z,27.6010,-82.7510,-1.0,2.98,2 
COMPS,ioos:station:USF.COMPS:EGK:1,2010-02-03T00:48:00Z,27.6010,-82.7510,-1.0,3.05,2 
COMPS,ioos:station:USF.COMPS:EGK:1,2010-02-03T00:54:00Z,27.6010,-82.7510,-1.0,3.3,2 
COMPS,ioos:station:USF.COMPS:EGK:1,2010-02-03T01:00:00Z,27.6010,-82.7510,-1.0,3.56,2 
COMPS,ioos:station:USF.COMPS:EGK:1,2010-02-03T01:06:00Z,27.6010,-82.7510,-1.0,3.76,2 
COMPS,ioos:station:USF.COMPS:EGK:1,2010-02-03T01:12:00Z,27.6010,-82.7510,-1.0,4.39,2 
COMPS,ioos:station:USF.COMPS:EGK:1,2010-02-03T01:18:00Z,27.6010,-82.7510,-1.0,5.57,2 
COMPS,ioos:station:USF.COMPS:EGK:1,2010-02-03T01:24:00Z,27.6010,-82.7510,-1.0,6.35,2 
COMPS,ioos:station:USF.COMPS:EGK:1,2010-02-03T01:30:00Z,27.6010,-82.7510,-1.0,6.98,2 
COMPS,ioos:station:USF.COMPS:EGK:1,2010-02-03T01:36:00Z,27.6010,-82.7510,-1.0,7.31,2 
COMPS,ioos:station:USF.COMPS:EGK:1,2010-02-03T01:42:00Z,27.6010,-82.7510,-1.0,7.5,2 
COMPS,ioos:station:USF.COMPS:EGK:1,2010-02-03T01:48:00Z,27.6010,-82.7510,-1.0,7.61,2 
COMPS,ioos:station:USF.COMPS:EGK:1,2010-02-03T01:54:00Z,27.6010,-82.7510,-1.0,7.75,2 
COMPS,ioos:station:USF.COMPS:EGK:1,2010-02-03T02:00:00Z,27.6010,-82.7510,-1.0,7.72,2 
COMPS,ioos:station:USF.COMPS:EGK:1,2010-02-03T02:06:00Z,27.6010,-82.7510,-1.0,7.65,2 
COMPS,ioos:station:USF.COMPS:EGK:1,2010-02-03T02:12:00Z,27.6010,-82.7510,-1.0,7.63,2 
COMPS,ioos:station:USF.COMPS:EGK:1,2010-02-03T02:18:00Z,27.6010,-82.7510,-1.0,7.53,2 
COMPS,ioos:station:USF.COMPS:EGK:1,2010-02-03T02:24:00Z,27.6010,-82.7510,-1.0,7.75,2 
COMPS,ioos:station:USF.COMPS:EGK:1,2010-02-03T02:30:00Z,27.6010,-82.7510,-1.0,3.16,2 
COMPS,ioos:station:USF.COMPS:EGK:1,2010-02-03T02:36:00Z,27.6010,-82.7510,-1.0,2.43,2 
COMPS,ioos:station:USF.COMPS:EGK:1,2010-02-03T02:42:00Z,27.6010,-82.7510,-1.0,2.73,2 
COMPS,ioos:station:USF.COMPS:EGK:1,2010-02-03T02:48:00Z,27.6010,-82.7510,-1.0,0.91,2 
COMPS,ioos:station:USF.COMPS:EGK:1,2010-02-03T02:54:00Z,27.6010,-82.7510,-1.0,3.26,2 
COMPS,ioos:station:USF.COMPS:EGK:1,2010-02-03T03:00:00Z,27.6010,-82.7510,-1.0,3.17,2 
COMPS,ioos:station:USF.COMPS:EGK:1,2010-02-03T03:06:00Z,27.6010,-82.7510,-1.0,3.55,2 
COMPS,ioos:station:USF.COMPS:EGK:1,2010-02-03T03:12:00Z,27.6010,-82.7510,-1.0,8.08,2 
COMPS,ioos:station:USF.COMPS:EGK:1,2010-02-03T03:18:00Z,27.6010,-82.7510,-1.0,8.0,2 
COMPS,ioos:station:USF.COMPS:EGK:1,2010-02-03T03:24:00Z,27.6010,-82.7510,-1.0,8.02,2 
COMPS,ioos:station:USF.COMPS:EGK:1,2010-02-03T03:30:00Z,27.6010,-82.7510,-1.0,8.1,2 
COMPS,ioos:station:USF.COMPS:EGK:1,2010-02-03T03:36:00Z,27.6010,-82.7510,-1.0,8.24,2 
COMPS,ioos:station:USF.COMPS:EGK:1,2010-02-03T03:42:00Z,27.6010,-82.7510,-1.0,8.27,2 